Weather History for Pueblo, CO

Change the Weather History Date:

Monday, February 20, 2012

  Actual Average Record
Temperature  
Mean Temperature 37 °F 35 °F  
Max Temperature 49 °F 52 °F 81 °F (1981)
Min Temperature 24 °F 19 °F -6 °F (1889)
Degree Days  
Heating Degree Days 28 30  
Month to date heating degree days 672 643  
Since 1 July heating degree days 3892 4075  
Cooling Degree Days 0 0  
Month to date cooling degree days 0 0  
Year to date cooling degree days 0 0  
Moisture  
Dew Point 14 °F    
Average Humidity 41    
Maximum Humidity 69    
Minimum Humidity 12    
Precipitation  
Precipitation T in 0.01 in 0.42 in (1913)
Month to date precipitation 0.37 0.19  
Year to date precipitation 0.40 0.54  
Snow  
Snow 0.10 in 0.10 in 10.50 in (1913)
Month to date snowfall 3.7 2.8  
Since 1 July snowfall 25.7 20.8  
Snow Depth 0.00 in    
Sea Level Pressure  
Sea Level Pressure 29.77 in    
Wind  
Wind Speed 11 mph (NNW)    
Max Wind Speed 26 mph    
Max Gust Speed 36 mph    
Visibility 9 miles    
Events Snow    
T = Trace of Precipitation, MM = Missing Value Source: NWS Daily Summary

Daily Weather History Graph

Daily Weather History Graph

Search for Another Location

Airport:

Trip Planner

Search our weather history database for the weather conditions in past years. The results will help you decide how hot, cold, wet, or windy it might be!

Date:

Astronomy

Feb. 20, 2012 Rise Set
Actual Time 6:42 AM MST 5:41 PM MST
Civil Twilight 6:15 AM MST 6:08 PM MST
Nautical Twilight 5:45 AM MST 6:39 PM MST
Astronomical Twilight 5:14 AM MST 7:09 PM MST
Moon 5:40 AM MST (2/20) 4:48 PM MST (2/20)
Length of Visible Light 11h 52m
Length of Day
10h 58m
Waning Crescent, 1% of the Moon is Illuminated
Feb 20
Waning Crescent
Feb 21
New
Feb 29
First Quarter
Mar 8
Full
Mar 14
Last Quarter

Hourly Weather History & Observations

Time (MST) Temp. Windchill Dew Point Humidity Pressure Visibility Wind Dir Wind Speed Gust Speed Precip Events Conditions
12:53 AM 37.9 °F 26.8 °F 23.0 °F 55% 29.52 in 10.0 mi WNW 24.2 mph 29.9 mph N/A   Clear
1:53 AM 34.0 °F 25.5 °F 23.0 °F 64% 29.53 in 10.0 mi West 11.5 mph - N/A   Clear
2:53 AM 30.0 °F 21.1 °F 19.9 °F 66% 29.53 in 10.0 mi WNW 10.4 mph - N/A   Clear
3:53 AM 30.9 °F 20.2 °F 21.0 °F 67% 29.55 in 9.0 mi North 15.0 mph - N/A   Clear
4:53 AM 33.1 °F 25.5 °F 21.9 °F 64% 29.58 in 10.0 mi NNW 9.2 mph - N/A   Overcast
5:53 AM 33.1 °F 25.5 °F 21.0 °F 61% 29.62 in 10.0 mi North 9.2 mph - N/A   Overcast
6:53 AM 32.0 °F 20.1 °F 19.0 °F 59% 29.66 in 10.0 mi North 19.6 mph 27.6 mph N/A   Overcast
7:27 AM 30.2 °F 18.5 °F 23.0 °F 75% 29.71 in 2.5 mi North 17.3 mph 21.9 mph 0.00 in Snow Light Snow
7:33 AM 30.2 °F 22.6 °F 24.8 °F 80% 29.72 in 0.8 mi NNW 8.1 mph 21.9 mph 0.00 in Snow Light Snow
7:53 AM 28.9 °F 21.1 °F 26.1 °F 89% 29.73 in 1.0 mi NW 8.1 mph - 0.00 in Snow Light Snow
8:02 AM 30.2 °F 20.8 °F 26.6 °F 86% 29.73 in 3.0 mi WNW 11.5 mph - 0.00 in Snow Light Snow
8:15 AM 30.2 °F 20.8 °F 24.8 °F 80% 29.74 in 10.0 mi WNW 11.5 mph - 0.00 in   Overcast
8:53 AM 33.1 °F 26.9 °F 21.9 °F 64% 29.77 in 10.0 mi NNW 6.9 mph - 0.00 in   Overcast
9:53 AM 36.0 °F 25.6 °F 19.9 °F 52% 29.79 in 10.0 mi North 18.4 mph - N/A   Partly Cloudy
10:53 AM 37.0 °F 31.6 °F 17.1 °F 44% 29.81 in 10.0 mi North 6.9 mph - N/A   Mostly Cloudy
11:53 AM 37.4 °F - 12.2 °F 36% 29.80 in 10.0 mi Calm Calm - N/A   Mostly Cloudy
12:53 PM 42.1 °F 38.4 °F 9.0 °F 26% 29.78 in 10.0 mi ENE 5.8 mph - N/A   Clear
1:53 PM 48.0 °F - 1.0 °F 14% 29.77 in 10.0 mi NW 25.3 mph 35.7 mph N/A   Clear
2:02 PM 48.2 °F - -0.4 °F 13% 29.79 in 10.0 mi WNW 20.7 mph 35.7 mph N/A   Clear
2:53 PM 48.0 °F - -2.0 °F 13% 29.79 in 10.0 mi West 25.3 mph 32.2 mph N/A   Clear
3:53 PM 46.4 °F 41.9 °F 1.4 °F 16% 29.81 in 10.0 mi North 9.2 mph 16.1 mph N/A   Clear
4:53 PM 43.0 °F 36.0 °F 10.9 °F 27% 29.85 in 10.0 mi East 13.8 mph - N/A   Clear
5:02 PM 42.8 °F 34.5 °F 10.4 °F 27% 29.85 in 10.0 mi ESE 18.4 mph - N/A   Clear
5:53 PM 37.9 °F 32.1 °F 12.0 °F 35% 29.90 in 10.0 mi ESE 8.1 mph - N/A   Clear
6:53 PM 30.0 °F 26.5 °F 10.9 °F 45% 29.96 in 10.0 mi WSW 3.5 mph - N/A   Clear
7:53 PM 25.0 °F 18.1 °F 10.0 °F 53% 29.99 in 10.0 mi NW 5.8 mph - N/A   Clear
8:53 PM 25.0 °F - 10.0 °F 53% 29.98 in 10.0 mi Calm Calm - N/A   Clear
9:53 PM 25.0 °F 15.5 °F 12.0 °F 58% 29.97 in 10.0 mi SE 9.2 mph - N/A   Clear
10:53 PM 35.1 °F 25.2 °F 1.9 °F 25% 29.93 in 10.0 mi WNW 16.1 mph - N/A   Clear
11:53 PM 30.0 °F 23.2 °F 1.9 °F 30% 29.92 in 10.0 mi WNW 6.9 mph - N/A   Clear